CZ-6A DEB, 54886

Orbit data source: Space-Track

CZ-6A DEB, 54886 is space debris in SSO originally from a launch on Fri, 11 Nov 2022 UTC launched from the Taiyaun Space Center, China (TSC). Debris objects in space refer to the collection of defunct objects orbiting the Earth. Examples of debris include non-operational satellites, rocket bodies, and fragments generated from explosions, collisions, or faulty payload assembly.

Loading next visibility...
Identifier
54886, 2022-151PX
Orbit
SSO
Country
Flag of CNCN / PRC
Related business
Manufacturer
SAST
Mission
Spacecraft
Bus & Motor
Unknown
Mass
Unknown
Launch date (UTC)
2022-11-11 (3 years ago)
Launch vehicle
Unknown
Launch site
Taiyaun Space Center, China (TSC)
Object type
Payload
Rocket body
Debris
Shape & HBR
Unknown shape, 0.2 m
Radar Cross Section
Small (<0.1 m²)

Expand to show TLE details & history
Last TLE update: 12 hours ago

TLE from 12 hours ago
0 CZ-6A DEB
1 54886U 22151PX  26130.09252390  .00000204  00000-0  32314-3 0  9996
2 54886  98.9154 330.4519 0493279 217.3355 139.2517 13.18787732167980
Epoch: 2026-05-10T02:13Z
TLE epoch observation values (Epoch: 2026-05-10T02:13:14.064Z)
Latitude
-0.00007°
Longitude
69.24274°
Altitude
1,482.394 km
Speed
6.985 km/s
True Right ascension
22h 01m 48s
True Declination
0° 00' 00"
Sunlit
Object was in daylight at epoch
Visualization orbit readout
Latitude
Unknown
Longitude
Unknown
Altitude
Unknown
Speed
Unknown
Apparent Right ascension
Unknown
Apparent Declination
Unknown
Sunlit
N/A
Visualization observer readout
Local Sidereal Time
22:08:34
Azimuth
Unknown
Elevation
Unknown
Doppler factor
Unknown
Orbital elements
Apogee altitude
1,559.804 km
Perigee altitude
813.494 km
Semi-major axis
7,564.786 km
Eccentricity
0.04933
Inclination
98.9154°
RAAN
330.4519°
Arg. of periapsis
217.3355°
True anomaly
142.7742°
Mean anomaly
139.2517°
Eccentric anomaly
141.02922°
Mean motion
3.29874 °/min
Orbital period
109.13 mins
BSTAR
0.00032314
Loading maneuver chart data...
Computing Atmospheric mass density...
Loading historical data...
Loading historical data...
Loading historical data...
Loading historical data...
Loading historical data...
Loading historical data...
Loading historical data...

Documentation

Showing up to 5 results
|